Student's Login

Local Time

LGIR WEATHER

[source: ADDS]
METAR
LGIR 201750Z 28006KT 9999 FEW020 13/10 Q1020 NOSIG =
TAF LGIR 201700Z 2018/2118 32010KT 9999 FEW010 SCT030 BECMG 2018/2020 18010KT BECMG 2107/2109 31010KT
TAF
TAF LGIR 201700Z 2018/2118 32010KT 9999 FEW010 SCT030 BECMG 2018/2020 18010KT BECMG 2107/2109 31010KT =

Czech sport aircraft

Cretan Eagle Aviation Ltd. is proud to be appointed as an authorized Czech Sport Aircraft Promoter for Greece
and Cyprus. Please click on the link or give us a call for any additional information on Czech Sport Aircraft.

 

 

On-line PPL QUIZ

Student members can join our free on-line database to practice on PPL quizzes and get ready for the real
exams. Becoming a member and getting access to our system is FREE for all of our students.

 

Paypal Verified

Payments for any Course can be made by Bank Transfer, Cash and PayPal secure payment.

 

Go to top